sat.trackr.live / text

‹ back to catalog

STARLINK-35459

NORAD 65856 · 2025-223C

PAYLOAD ACTIVE UNKNOWN

§ Identity

Operator
Country
US
Launch date
2025-10-03
Launch site
AFWTR
Launch vehicle
Mass (kg)
RCS (m²)

Purposes: comms

External: N2YO · Heavens-Above · Gunter

§ Orbital elements

Epoch: 2026-05-25T02:59:40.031232Z

Period
93.85 min
Inclination
53.1590°
Eccentricity
0.0001619
Mean motion
15.34389807 rev/d
Perigee alt
461.6 km
Apogee alt
463.8 km
Semi-major
6,840.9 km
B*
6.9398e-4
RAAN
298.7604°
Arg perigee
92.8421°
Mean anomaly
267.2767°
Rev number
3,591

§ Raw data

STARLINK-354591 65856U 25223C   26145.12476888  .00023136  00000+0  69398-3 0  99982 65856  53.1590 298.7604 0001619  92.8421 267.2767 15.34389807 35917

JSON: /api/v1/satellites/65856 · /tle

For live sub-satellite position, see the globe view (requires WebGL).

§ Visibility from observer

Set your observer location to see the next 7 days of passes ≥ 10°. The values pass through the URL so the page stays shareable.

No JS? Fill the form by hand. The geolocation button needs JavaScript.